Location: ??
(34.7252°N, 135.5457°E)
Time: 08:27:40
(UTC+00:00)

Cosmos 1814 Rocket - Pass Details

Date: 24 September 2020
Orbit: 744 x 788 km, 74.1° (Epoch: 29 October)

Event Time Altitude Azimuth Distance (km) Brightness Sun altitude
Exits shadow 19:02:11 41° 206° (SSW) 1,093 4.4 -22.3°
Maximum altitude 19:04:02 80° 287° (WNW) 778 3.8 -22.0°
Drops below altitude 10° 19:09:18 10° 15° (NNE) 2,318 6.8 -20.9°
Sets 19:11:42 0° 16° (NNE) 3,255 7.7 -20.4°
